Погода Туапсе

Погода Туапсе : погода сейчас, прогноз погоды и архив. Всё, что Вы хотите узнать о погоде Туапсе!

Хотите узнать прогноз погоды Туапсе? Тогда Вам сюда: Погода Туапсе

Поиск расширенной информации на нашем сайте:

Другие новости

Новости СМИ2

Главная страница сайта

Новости сайта

03.07.2017

Напоминаем, что на нашем специализированном сайте Метеоцентр.Азия вы можете получить высокодетализированные автоматические прогнозы погоды по пунктам России, СНГ и мира в авиационном формате (включающие направление и скорость ветра, видимость, явления погоды, количество и форму облачности, нижнюю и верхнюю границу облачности).


Погода Туапсе - сегодня

Время (UTC), дата Ветер
(°,м/с) 
Видим.   Явления Облачность Т
(°С)
Тd
(°С)
f(%) Тe
(°С)
Pmin
(гПа)
dP
(гПа)
Po
(мм)
O2
(г/м3)
Тmin Tmax R s Состояние
почвы
06 20.02.18 170 (Ю) 20000 м    ясно 
+8.7 -3.2 43 +9  1024.1  0.8  762  298           
09 20.02.18 060 (СВ) 20000 м    10/1 1000 м средняя, верхняя 
[Sc|Ac As|Ci]
+7.3 -1 56 +6  1018.5  0.2  758  298           
12 20.02.18 060 (СВ) 20000 м    9/3 1000 м средняя, верхняя 
[Sc|Ac As|Ci fib]
+7.9 -0.6 55 +7  1018  -0.4  758  297           
15 20.02.18 050 (СВ) 20000 м    9/4 1000 м средняя, верхняя 
[Sc|Ac As|Ci fib]
+5.3 -0.9 64 +4  1018  0.1  758  300    +8.7       
18 20.02.18 020 (С) 10 км    10/5 1000 м верхняя 
[Sc|Ci sp]
+8.9 +2.2 63 +9  1023.6  762  297           
21 20.02.18 030 (СВ) 3{10}  10 км    10/8 1000 м верхняя 
[Sc|Ci]
+4.7 -1 66 +4  1017.8  -0.5  758  300           
00 21.02.18 030 (СВ) 10 км    10/8 1000 м верхняя 
[Sc|Ci]
+4.8 -1.1 66 +4  1017.5  -0.4  757  300           
03 21.02.18 030 (СВ) 10 км    10/3 1000 м средняя, верхняя 
[Sc|Ac As|Ci]
+4.5 -1.1 67 +3  1016.9  -0.5  757  300  +4.4         
06 21.02.18 030 (СВ) 20000 м    10/0 средняя, верхняя 
[Ac trans|Ci fib]
+5.8 -1 62 +5  1016.9  757  299           
09 21.02.18 060 (СВ) 20000 м    3/0 средняя 
[Ac trans]
+10.2 -0.4 48 +10  1016.3  -0.5  757  294           
12 21.02.18 220 (ЮЗ) 20000 м    3/0 верхняя 
[Ci fib]
+13.7 +3.2 49 +14  1015  -1.2  756  289           
15 21.02.18 030 (СВ) 20000 м    3/0 средняя, верхняя 
[Ac trans|Ci fib]
+8.9 +0.2 54 +9  1014.7  -0.4  755  295    +14.9       
18 21.02.18 030 (СВ) 10 км    ясно 
+7.3 -0.1 59 +7  1014.9  0.1  755  296           
21 21.02.18 030 (СВ) 10 км    10/0 верхняя 
[Ci fib]
+6.8 -0.2 61 +7  1014.4  -0.5  755  297           
00 22.02.18 тихо ()   10 км    10/0 средняя, верхняя 
[Ac trans|Ci fib]
+6.7 -0.1 62 +7  1014.2  -0.2  755  297           
03 22.02.18 050 (СВ) 10 км    10/0 средняя, верхняя 
[Ac trans|Ci fib]
+6.1 +0.6 68 +7  1013.6  -0.6  755  297  +6.1         
06 22.02.18 070 (В) 20000 м    10/8 1000 м верхняя 
[Sc|Ci sp]
+6.7 +0.8 66 +8  1013.7  0.1  755  297           
09 22.02.18 070 (В) 20000 м    10/8 1000 м верхняя 
[Sc|Ci sp]
+8.9 +1.2 58 +10  1014.4  0.8  755  295           
12 22.02.18 240 (ЮЗ) 20000 м    8/3 1000 м средняя, верхняя 
[Sc|Ac cast|Ci sp]
+13 +3.9 54 +13  1013.7  -0.6  755  290           
15 22.02.18 300 (СЗ) 20000 м    4/3 1000 м верхняя 
[Sc|Ci fib]
+9.8 +3.3 64 +11  1013.1  -0.6  754  293    +14.4       
18 22.02.18 020 (С) 10 км    10/6 1000 м средняя, верхняя 
[Sc|Ac cast|Ci fib]
+8.3 +1.8 64 +8  1013.5  0.3  755  295           
21 22.02.18 020 (С) 10 км    10/3 1000 м средняя, верхняя 
[Sc|Ac cast|Ci fib]
+6.4 +1.5 71 +5  1013.8  0.2  755  297           
00 23.02.18 040 (СВ) 10 км    4/0 верхняя 
[Ci fib]
+6.1 +1.5 72 +5  1013.5  -0.3  754  297           
06 23.02.18 040 (СВ) 20000 м    10/8 1000 м средняя 
[Cu Sc|Ac As]
+6.7 +3.1 78 +8  1013.4  0.6  754  296  +5.4         
09 23.02.18 120 (ЮВ) 20000 м    10/8 1000 м средняя 
[Cu Sc|Ac As]
+7.7 +3.6 75 +9  1013.7  0.3  755  295           
Время (UTC), дата Ветер
(°,м/с) 
Видим.   Явления Облачность Т
(°С)
Тd
(°С)
f(%) Тe
(°С)
Pmin
(гПа)
dP
(гПа)
Po
(мм)
O2
(г/м3)
Тmin Tmax R s Состояние
почвы

Для получения пояснительной информации подведите курсор к названию столбца.

ПОГОДА Туапсе - архив

Всё, что Вы хотите узнать о погоде Туапсе - удобно и подробно!

Выберите нужную дату (начиная с 1 января 2015* года) и нажмите кнопку "Найти".
Будут отображены архивные сводки погоды по пункту Туапсе, начиная с указанной даты.


Отображать данные в формате CSV (для использования в таблицах Excel)


Внимание! Наш архив погоды предназначен исключительно для личного некоммерческого использования в познавательных целях. Если Вам необходимы официальные справки о состоянии погоды (для производственных, юридических, коммерческих и т.п. целей), обращайтесь в органы Росгидромета.

*Примечание: данная дата относится к архиву по метеостанциям СССР (Россия, СНГ, Балтия).
Архив по метеостанциям Зарубежной Европы и Азии (кроме Китая) хранится 10 дней, по другим регионам земного шара (Китай, Африка, Америка, Австралия, Океания) - 1 день.

Туапсе - район местоположения метеостанции


Название, широта, долгота, высота метеостанции:
Туапсе 44.1°ш. 39.1°д. 61 м над ур. моря [Российская Федерация]

Дополнительная информация

В oтличие oт бoльшинства пoгoдных сайтoв мы публикуем пoдрoбную метеoинфoрмацию в детальнoм прoфессиoнальнoм фoрмате.

Характеристики температуры и влажнoсти вoздуха измеряются на высoте 2 м в тени вдали oт зданий и деревьев.
Скoрoсть ветра измеряется на высoте 10 м (на урoвне рoста челoвека скoрoсть ветра ниже в 1.5-2 раза). Если метеoстанция нахoдится в гoрoде или в лесу, тo скoрoсть ветра занижена на 2-4 м/с пo сравнению с oткрытым местoм. Скoрoсть ветра над акватoриями крупных рек и oзёр, а также на вершинах хoлмoв на 2-5 м/с выше, чем в oбычных услoвиях.
Атмoсфернoе давление в разных тoчках местнoсти мoжет значительнo oтличаться oт давления на метеoстанции, в зависимoсти oт услoвий рельефа (при пoдъёме на 10 м давление пoнижается примернo на 1 мм рт.ст.).